Theta_e
352 344 339 344 347 349 349 349 348 348 347 338 339 341 338 332 349 353 351 349 341 347 347 345 343 341 334 336 341 330 329 327 332 341 343 344 347 350
349 351 348 344 343 348 349 348 350 347 348 346 347 348 344 349 351 353 347 343 349 349 346 346 345 343 335 326 326 326 327 327 329 332 340 341 346 348
343 348 349 349 341 339 348 347 350 348 348 350 348 345 343 346 347 351 349 349 349 348 349 346 345 345 340 342 337 333 326 326 328 332 334 342 345 347
348 345 346 345 349 348 340 344 346 345 348 348 347 347 347 343 344 346 346 349 348 349 348 345 347 346 344 343 341 341 340 340 334 340 335 334 341 344
348 350 349 348 348 346 345 346 346 347 346 345 345 345 344 345 347 347 349 346 344 346 347 347 346 347 345 344 343 342 341 342 343 343 337 331 334 339
349 347 349 350 346 348 346 348 345 348 348 349 351 350 347 350 349 349 351 352 352 348 345 347 347 346 346 343 345 343 342 343 344 345 338 336 333 331
348 351 351 350 349 348 347 346 345 347 346 350 346 344 346 347 346 346 345 346 342 341 339 340 340 344 347 347 346 346 346 346 346 344 337 336 329 330
347 345 346 345 345 345 346 347 345 343 340 340 340 340 340 340 340 340 340 343 344 340 341 345 349 350 350 348 349 347 347 346 347 347 343 339 332 330
341 342 344 346 348 348 347 345 341 343 345 346 347 349 348 344 343 342 343 344 342 340 345 349 350 350 353 353 350 348 348 348 348 347 347 348 347 342
343 345 345 343 341 341 343 344 343 341 342 348 347 346 346 345 346 345 343 342 343 346 351 351 351 352 352 349 348 352 352 352 349 351 351 349 349 349
344 342 342 342 341 341 341 342 341 342 343 342 343 343 343 342 342 344 344 345 347 348 348 349 350 350 350 348 346 347 351 351 350 353 352 352 350 349
339 340 340 338 338 337 336 336 336 338 340 341 341 341 341 343 343 344 347 349 348 346 346 347 346 342 340 339 342 344 349 352 352 353 355 353 352 352
336 336 336 336 336 335 333 330 329 331 333 333 333 339 340 341 342 342 342 341 340 339 339 337 339 342 343 344 343 343 340 340 348 350 351 353 352 351
325 328 332 333 330 326 328 332 329 323 317 319 330 335 336 336 338 338 338 337 331 331 332 334 338 340 337 337 339 338 340 348 349 347 345 347 348 350
315 313 313 312 311 310 312 315 316 315 315 314 317 321 321 323 324 324 324 325 325 326 327 328 330 330 332 342 342 343 336 336 338 342 339 345 350 349
309 307 307 312 316 317 318 319 318 319 319 320 321 321 321 321 321 322 323 324 325 326 327 328 331 331 331 332 335 337 338 341 343 343 343 343 342 342
305 305 312 316 316 317 317 317 317 317 316 316 315 312 314 314 314 315 315 316 317 317 317 318 320 326 328 328 329 331 333 336 334 336 339 341 342 346
306 311 310 310 310 310 308 309 313 312 311 308 306 308 309 310 310 313 315 316 316 317 317 317 316 314 313 310 316 322 321 326 329 330 332 335 336 335
313 313 313 312 312 312 311 310 308 307 307 307 306 306 307 307 307 308 309 311 312 313 313 313 312 317 316 316 309 314 321 322 321 323 323 322 329 338
311 311 311 310 309 309 308 307 306 307 305 305 306 306 306 306 306 306 306 306 305 305 305 306 308 310 311 310 311 308 311 318 319 320 322 323 324 323
309 309 308 308 308 307 306 306 305 305 305 305 305 304 304 304 304 304 303 303 303 304 304 303 304 303 303 303 304 305 306 306 306 313 320 320 319 319
308 307 307 306 306 305 304 304 304 303 303 303 302 302 301 301 301 300 300 300 300 300 300 300 300 301 302 303 303 303 302 305 305 305 305 311 318 319
306 306 305 305 304 303 302 302 301 301 301 300 299 299 298 298 298 298 298 298 298 299 299 299 299 299 299 300 300 301 301 302 304 304 306 305 305 311
Wind_Speed
5 9 11 7 9 7 6 10 12 8 12 11 16 15 19 15 11 10 19 25 21 14 19 17 21 22 18 14 14 13 13 13 12 11 8 8 10 13
5 13 10 13 14 4 9 11 12 14 13 10 9 9 5 9 14 19 23 25 13 18 19 15 19 20 21 17 15 14 13 13 15 14 11 9 8 9
15 14 11 9 15 17 13 10 10 13 13 9 14 16 20 18 17 22 22 19 17 14 16 16 19 18 19 18 18 18 17 15 15 16 15 12 10 10
12 10 11 16 12 11 11 13 14 13 14 14 12 12 15 18 19 18 21 19 18 17 20 20 18 18 18 20 19 18 17 17 16 20 19 14 14 13
9 9 10 9 11 11 13 16 17 13 13 14 17 15 17 22 19 17 11 13 13 16 18 20 22 17 22 19 22 21 17 18 18 25 24 15 14 15
11 10 11 12 14 13 11 10 8 13 10 11 13 16 16 5 8 13 15 13 13 16 14 16 18 21 23 21 22 21 17 17 23 28 27 20 16 14
11 11 11 14 12 13 13 13 14 16 15 15 18 17 17 21 21 19 19 20 21 22 17 18 20 15 12 15 14 17 21 20 25 28 21 21 15 16
12 11 10 12 13 12 10 11 13 15 17 17 16 17 17 18 21 21 21 23 25 24 27 19 16 21 22 22 21 22 22 23 23 23 22 20 18 14
13 13 13 14 14 13 16 13 13 13 13 15 17 18 21 19 20 22 22 23 28 28 20 26 27 27 25 15 15 20 23 22 22 21 21 21 20 18
15 14 15 16 16 16 16 17 17 17 17 17 19 21 21 23 24 25 26 28 29 23 22 25 21 21 24 26 23 20 21 24 16 24 28 25 24 21
8 9 14 15 15 15 16 17 18 17 15 17 18 20 21 24 22 21 20 18 23 24 21 19 25 27 28 26 21 18 19 21 21 26 29 25 26 24
12 8 9 10 11 10 10 12 14 16 16 16 18 19 13 12 14 18 22 24 23 24 20 19 28 32 37 32 27 25 21 22 24 24 24 23 22 24
14 14 15 13 15 17 15 12 14 17 16 15 13 10 15 13 11 11 11 14 19 22 24 24 26 26 25 31 29 27 26 24 23 27 28 26 24 24
11 13 15 17 17 17 20 20 16 16 16 14 10 12 12 13 15 19 19 20 17 19 19 21 26 25 28 33 33 35 30 27 29 27 25 21 26 27
12 11 10 11 11 9 8 9 10 11 12 13 13 14 15 18 20 20 19 19 20 20 19 19 20 24 25 28 31 28 33 32 26 27 30 26 27 28
9 7 4 3 4 5 6 6 7 6 7 7 9 12 12 13 12 13 18 20 23 23 20 15 14 18 21 21 25 30 29 34 34 29 28 27 29 30
7 5 6 6 6 8 8 5 7 10 13 12 11 10 11 13 14 16 18 18 19 23 26 24 23 24 25 25 27 27 27 27 27 30 26 27 27 27
2 1 6 3 5 6 7 6 10 12 13 14 13 14 15 14 17 16 14 15 17 20 22 26 31 34 31 26 21 26 30 31 33 34 35 36 39 36
8 2 1 1 1 0 4 6 8 10 11 14 13 14 14 17 18 18 19 20 22 25 27 29 29 26 27 31 38 27 33 38 39 42 40 41 36 36
4 3 2 1 2 3 4 5 7 8 11 12 12 12 15 16 19 20 22 24 27 30 30 29 27 26 31 37 44 45 39 30 33 37 41 43 44 47
3 1 2 1 4 3 6 6 8 9 11 12 11 13 14 15 17 19 21 22 25 27 30 33 33 36 37 39 41 46 45 41 40 35 34 36 46 51
3 2 4 2 3 4 4 5 5 6 8 9 11 13 16 18 19 21 24 26 27 28 30 35 37 35 33 32 38 43 52 50 47 47 41 36 37 46
4 5 2 2 3 6 6 5 7 8 11 13 15 17 19 20 21 23 25 27 30 33 34 36 36 37 40 40 41 46 48 48 44 52 51 45 41 41
Wind_Direction
234 292 260 263 315 358 302 321 326 333 322 282 284 311 290 262 282 297 308 313 320 334 328 337 345 350 345 340 335 341 343 349 351 346 328 335 335 339
231 262 260 269 269 272 319 285 317 311 329 325 332 317 336 324 313 300 323 330 340 337 328 341 352 354 354 347 346 346 342 342 347 341 332 320 323 331
231 252 278 278 293 260 273 277 307 336 341 344 330 321 320 325 311 297 322 338 333 335 327 343 347 348 350 358 1 357 345 342 345 348 334 313 309 313
265 264 269 282 280 293 287 301 300 314 326 329 318 310 300 301 292 300 307 321 335 332 327 344 333 341 349 351 343 340 349 349 345 342 340 320 300 305
268 265 268 280 279 271 261 273 275 278 283 294 298 310 314 313 304 302 321 344 348 334 348 338 334 331 337 335 331 326 319 326 330 338 334 315 307 287
258 260 263 270 278 284 281 284 296 285 288 298 299 311 319 333 330 357 346 329 323 313 312 312 330 326 317 315 323 324 312 316 333 334 328 318 303 295
256 257 275 276 269 275 278 280 288 286 284 283 287 297 298 317 324 324 312 312 305 306 320 311 315 318 331 321 327 325 335 334 332 333 324 318 302 305
269 262 258 281 285 284 286 290 299 293 298 297 297 300 306 312 313 313 315 315 317 324 322 328 333 324 325 320 309 312 325 323 322 328 330 324 312 301
269 272 266 259 267 281 275 284 294 298 300 308 311 309 307 318 315 316 316 312 312 320 324 322 332 325 327 335 316 320 328 322 318 322 329 334 337 314
263 277 276 273 273 280 284 279 285 290 290 299 300 302 303 304 301 303 306 309 312 323 325 309 318 322 315 310 308 311 317 325 324 322 321 315 324 321
269 269 277 282 282 282 283 286 288 286 279 274 281 290 298 304 307 307 315 312 308 308 322 317 315 315 314 313 315 314 299 304 315 316 317 316 307 307
275 265 279 281 289 294 297 305 307 309 308 292 288 298 313 338 337 320 314 304 301 311 321 328 317 317 314 312 310 310 301 299 305 309 315 313 315 306
260 273 278 282 288 296 294 302 309 306 306 310 316 347 342 317 328 324 338 334 325 314 317 318 317 317 316 315 314 316 325 316 297 294 292 300 304 306
267 265 272 277 287 291 292 291 297 297 299 300 291 284 285 285 276 288 293 298 302 307 315 321 315 315 314 314 313 321 326 327 319 323 328 314 302 302
276 282 282 289 293 304 332 342 334 326 315 308 303 301 300 296 293 294 296 297 287 286 294 303 316 317 323 307 306 308 311 311 322 305 316 306 313 309
287 283 282 305 32 12 32 5 345 316 327 305 297 297 298 304 307 308 300 299 301 301 296 296 303 309 311 309 314 315 317 311 316 309 315 310 305 308
280 255 233 222 205 213 213 223 241 266 277 289 291 300 305 305 309 307 317 324 322 318 318 317 296 280 283 293 302 302 305 305 306 308 302 305 304 311
210 32 277 281 266 270 278 262 263 284 296 299 305 310 311 310 305 311 314 317 323 326 315 307 308 315 312 289 294 296 290 291 292 293 299 303 301 295
105 133 122 49 217 222 339 319 311 318 319 321 333 331 322 313 314 308 306 307 300 297 300 307 326 341 322 309 295 289 294 291 299 300 301 304 303 299
115 196 152 297 278 291 292 309 320 337 329 340 345 330 326 330 334 332 328 322 318 315 310 307 308 301 307 306 300 299 302 308 298 294 293 295 286 284
170 206 194 181 278 301 320 334 354 346 343 338 331 322 325 320 321 320 317 319 319 321 319 317 314 309 309 308 306 299 295 293 289 287 295 306 301 299
193 185 249 255 296 302 314 330 340 323 324 323 316 318 319 324 321 320 320 318 317 316 312 307 313 319 317 313 306 303 305 302 300 300 290 274 291 300
232 227 256 330 315 308 319 335 329 331 319 317 322 324 325 327 327 327 325 324 322 321 320 316 313 310 310 311 307 304 305 312 314 309 300 301 294 272